Year,Month,Day,Hour,Minute,Value (Times are PST for temperature in C)
2012,10,02,00,00,9.50
2012,10,02,00,01,9.60
2012,10,02,00,02,9.60
2012,10,02,00,03,9.50
2012,10,02,00,04,9.50
2012,10,02,00,05,9.50
2012,10,02,00,06,9.60
2012,10,02,00,07,9.60
2012,10,02,00,08,9.60
2012,10,02,00,09,9.60
2012,10,02,00,10,9.60
2012,10,02,00,11,9.60
2012,10,02,00,12,9.60
2012,10,02,00,13,9.50
2012,10,02,00,14,9.50
2012,10,02,00,15,9.50
2012,10,02,00,16,9.50
2012,10,02,00,17,9.50
2012,10,02,00,18,9.50
2012,10,02,00,19,9.50
2012,10,02,00,20,9.50
2012,10,02,00,21,9.50
2012,10,02,00,22,9.50
2012,10,02,00,23,9.50
2012,10,02,00,24,9.50
2012,10,02,00,25,9.50
2012,10,02,00,26,9.50
2012,10,02,00,27,9.50
2012,10,02,00,28,9.50
2012,10,02,00,29,9.50
2012,10,02,00,30,9.40
2012,10,02,00,31,9.40
2012,10,02,00,32,9.40
2012,10,02,00,33,9.30
2012,10,02,00,34,9.30
2012,10,02,00,35,9.30
2012,10,02,00,36,9.30
2012,10,02,00,37,9.30
2012,10,02,00,38,9.30
2012,10,02,00,39,9.30
2012,10,02,00,40,9.30
2012,10,02,00,41,9.30
2012,10,02,00,42,9.20
2012,10,02,00,43,9.20
2012,10,02,00,44,9.20
2012,10,02,00,45,9.20
2012,10,02,00,46,9.20
2012,10,02,00,47,9.20
2012,10,02,00,48,9.20
2012,10,02,00,49,9.20
2012,10,02,00,50,9.20
2012,10,02,00,51,9.20
2012,10,02,00,52,9.30
2012,10,02,00,53,9.30
2012,10,02,00,54,9.20
2012,10,02,00,55,9.20
2012,10,02,00,56,9.20
2012,10,02,00,57,9.10
2012,10,02,00,58,8.90
2012,10,02,00,59,8.80
2012,10,02,01,00,8.70
2012,10,02,01,01,8.60
2012,10,02,01,02,8.50
2012,10,02,01,03,8.50
2012,10,02,01,04,8.40
2012,10,02,01,05,8.30
2012,10,02,01,06,8.30
2012,10,02,01,07,8.20
2012,10,02,01,08,8.20
2012,10,02,01,09,8.20
2012,10,02,01,10,8.20
2012,10,02,01,11,8.20
2012,10,02,01,12,8.10
2012,10,02,01,13,8.10
2012,10,02,01,14,8.00
2012,10,02,01,15,7.90
2012,10,02,01,16,7.90
2012,10,02,01,17,7.90
2012,10,02,01,18,7.80
2012,10,02,01,19,7.80
2012,10,02,01,20,7.80
2012,10,02,01,21,7.90
2012,10,02,01,22,7.90
2012,10,02,01,23,7.90
2012,10,02,01,24,8.00
2012,10,02,01,25,8.00
2012,10,02,01,26,8.00
2012,10,02,01,27,8.10
2012,10,02,01,28,8.10
2012,10,02,01,29,8.00
2012,10,02,01,30,7.90
2012,10,02,01,31,7.80
2012,10,02,01,32,7.80
2012,10,02,01,33,7.80
2012,10,02,01,34,7.80
2012,10,02,01,35,7.80
2012,10,02,01,36,7.80
2012,10,02,01,37,7.80
2012,10,02,01,38,7.80
2012,10,02,01,39,7.80
2012,10,02,01,40,7.80
2012,10,02,01,41,7.90
2012,10,02,01,42,7.80
2012,10,02,01,43,7.80
2012,10,02,01,44,7.70
2012,10,02,01,45,7.70
2012,10,02,01,46,7.60
2012,10,02,01,47,7.60
2012,10,02,01,48,7.50
2012,10,02,01,49,7.50
2012,10,02,01,50,7.40
2012,10,02,01,51,7.40
2012,10,02,01,52,7.30
2012,10,02,01,53,7.30
2012,10,02,01,54,7.20
2012,10,02,01,55,7.20
2012,10,02,01,56,7.20
2012,10,02,01,57,7.20
2012,10,02,01,58,7.20
2012,10,02,01,59,7.20
2012,10,02,02,00,7.10
2012,10,02,02,01,7.10
2012,10,02,02,02,7.10
2012,10,02,02,03,7.20
2012,10,02,02,04,7.20
2012,10,02,02,05,7.30
2012,10,02,02,06,7.30
2012,10,02,02,07,7.30
2012,10,02,02,08,7.30
2012,10,02,02,09,7.30
2012,10,02,02,10,7.40
2012,10,02,02,11,7.40
2012,10,02,02,12,7.40
2012,10,02,02,13,7.40
2012,10,02,02,14,7.30
2012,10,02,02,15,7.30
2012,10,02,02,16,7.20
2012,10,02,02,17,7.20
2012,10,02,02,18,7.20
2012,10,02,02,19,7.10
2012,10,02,02,20,7.10
2012,10,02,02,21,7.20
2012,10,02,02,22,7.10
2012,10,02,02,23,7.10
2012,10,02,02,24,7.20
2012,10,02,02,25,7.20
2012,10,02,02,26,7.20
2012,10,02,02,27,7.30
2012,10,02,02,28,7.30
2012,10,02,02,29,7.30
2012,10,02,02,30,7.30
2012,10,02,02,31,7.30
2012,10,02,02,32,7.30
2012,10,02,02,33,7.40
2012,10,02,02,34,7.30
2012,10,02,02,35,7.30
2012,10,02,02,36,7.10
2012,10,02,02,37,7.00
2012,10,02,02,38,6.90
2012,10,02,02,39,6.80
2012,10,02,02,40,6.80
2012,10,02,02,41,6.80
2012,10,02,02,42,6.80
2012,10,02,02,43,6.80
2012,10,02,02,44,6.80
2012,10,02,02,45,6.80
2012,10,02,02,46,6.80
2012,10,02,02,47,6.80
2012,10,02,02,48,6.80
2012,10,02,02,49,6.80
2012,10,02,02,50,6.80
2012,10,02,02,51,6.80
2012,10,02,02,52,6.80
2012,10,02,02,53,6.80
2012,10,02,02,54,6.80
2012,10,02,02,55,6.80
2012,10,02,02,56,6.80
2012,10,02,02,57,6.80
2012,10,02,02,58,6.90
2012,10,02,02,59,6.90
2012,10,02,03,00,7.00
2012,10,02,03,01,7.20
2012,10,02,03,02,7.30
2012,10,02,03,03,7.40
2012,10,02,03,04,7.40
2012,10,02,03,05,7.40
2012,10,02,03,06,7.40
2012,10,02,03,07,7.40
2012,10,02,03,08,7.40
2012,10,02,03,09,7.40
2012,10,02,03,10,7.40
2012,10,02,03,11,7.40
2012,10,02,03,12,7.40
2012,10,02,03,13,7.40
2012,10,02,03,14,7.50
2012,10,02,03,15,7.50
2012,10,02,03,16,7.60
2012,10,02,03,17,7.70
2012,10,02,03,18,7.70
2012,10,02,03,19,7.80
2012,10,02,03,20,7.80
2012,10,02,03,21,7.80
2012,10,02,03,22,7.80
2012,10,02,03,23,7.80
2012,10,02,03,24,7.80
2012,10,02,03,25,7.80
2012,10,02,03,26,7.80
2012,10,02,03,27,7.80
2012,10,02,03,28,7.80
2012,10,02,03,29,7.80
2012,10,02,03,30,7.80
2012,10,02,03,31,7.80
2012,10,02,03,32,7.80
2012,10,02,03,33,7.80
2012,10,02,03,34,7.80
2012,10,02,03,35,7.80
2012,10,02,03,36,7.80
2012,10,02,03,37,7.80
2012,10,02,03,38,7.80
2012,10,02,03,39,7.80
2012,10,02,03,40,7.80
2012,10,02,03,41,7.80
2012,10,02,03,42,7.80
2012,10,02,03,43,7.80
2012,10,02,03,44,7.80
2012,10,02,03,45,7.80
2012,10,02,03,46,7.80
2012,10,02,03,47,7.80
2012,10,02,03,48,7.80
2012,10,02,03,49,7.80
2012,10,02,03,50,7.80
2012,10,02,03,51,7.80
2012,10,02,03,52,7.80
2012,10,02,03,53,7.70
2012,10,02,03,54,7.70
2012,10,02,03,55,7.70
2012,10,02,03,56,7.70
2012,10,02,03,57,7.70
2012,10,02,03,58,7.70
2012,10,02,03,59,7.70
2012,10,02,04,00,7.70
2012,10,02,04,01,7.70
2012,10,02,04,02,7.80
2012,10,02,04,03,7.80
2012,10,02,04,04,7.80
2012,10,02,04,05,7.80
2012,10,02,04,06,7.80
2012,10,02,04,07,7.80
2012,10,02,04,08,7.80
2012,10,02,04,09,7.80
2012,10,02,04,10,7.80
2012,10,02,04,11,7.80
2012,10,02,04,12,7.70
2012,10,02,04,13,7.70
2012,10,02,04,14,7.60
2012,10,02,04,15,7.50
2012,10,02,04,16,7.50
2012,10,02,04,17,7.40
2012,10,02,04,18,7.30
2012,10,02,04,19,7.10
2012,10,02,04,20,6.90
2012,10,02,04,21,6.80
2012,10,02,04,22,6.70
2012,10,02,04,23,6.60
2012,10,02,04,24,6.60
2012,10,02,04,25,6.50
2012,10,02,04,26,6.40
2012,10,02,04,27,6.40
2012,10,02,04,28,6.40
2012,10,02,04,29,6.30
2012,10,02,04,30,6.30
2012,10,02,04,31,6.20
2012,10,02,04,32,6.20
2012,10,02,04,33,6.10
2012,10,02,04,34,6.10
2012,10,02,04,35,6.10
2012,10,02,04,36,6.10
2012,10,02,04,37,6.20
2012,10,02,04,38,6.20
2012,10,02,04,39,6.20
2012,10,02,04,40,6.20
2012,10,02,04,41,6.10
2012,10,02,04,42,6.00
2012,10,02,04,43,5.80
2012,10,02,04,44,5.70
2012,10,02,04,45,5.70
2012,10,02,04,46,5.60
2012,10,02,04,47,5.60
2012,10,02,04,48,5.50
2012,10,02,04,49,5.50
2012,10,02,04,50,5.50
2012,10,02,04,51,5.50
2012,10,02,04,52,5.50
2012,10,02,04,53,5.50
2012,10,02,04,54,5.60
2012,10,02,04,55,5.60
2012,10,02,04,56,5.60
2012,10,02,04,57,5.70
2012,10,02,04,58,5.70
2012,10,02,04,59,5.80
2012,10,02,05,00,5.90
2012,10,02,05,01,6.00
2012,10,02,05,02,6.00
2012,10,02,05,03,6.00
2012,10,02,05,04,6.00
2012,10,02,05,05,6.00
2012,10,02,05,06,6.10
2012,10,02,05,07,6.10
2012,10,02,05,08,6.10
2012,10,02,05,09,6.10
2012,10,02,05,10,6.10
2012,10,02,05,11,6.10
2012,10,02,05,12,6.10
2012,10,02,05,13,6.00
2012,10,02,05,14,6.00
2012,10,02,05,15,5.90
2012,10,02,05,16,5.80
2012,10,02,05,17,5.70
2012,10,02,05,18,5.70
2012,10,02,05,19,5.60
2012,10,02,05,20,5.50
2012,10,02,05,21,5.40
2012,10,02,05,22,5.30
2012,10,02,05,23,5.20
2012,10,02,05,24,5.10
2012,10,02,05,25,4.90
2012,10,02,05,26,4.80
2012,10,02,05,27,4.70
2012,10,02,05,28,4.60
2012,10,02,05,29,4.60
2012,10,02,05,30,4.60
2012,10,02,05,31,4.60
2012,10,02,05,32,4.70
2012,10,02,05,33,4.70
2012,10,02,05,34,4.80
2012,10,02,05,35,4.80
2012,10,02,05,36,4.90
2012,10,02,05,37,4.90
2012,10,02,05,38,4.90
2012,10,02,05,39,5.00
2012,10,02,05,40,5.10
2012,10,02,05,41,4.90
2012,10,02,05,42,4.90
2012,10,02,05,43,4.90
2012,10,02,05,44,4.90
2012,10,02,05,45,4.80
2012,10,02,05,46,4.80
2012,10,02,05,47,4.80
2012,10,02,05,48,4.70
2012,10,02,05,49,4.70
2012,10,02,05,50,4.60
2012,10,02,05,51,4.60
2012,10,02,05,52,4.50
2012,10,02,05,53,4.50
2012,10,02,05,54,4.50
2012,10,02,05,55,4.50
2012,10,02,05,56,4.40
2012,10,02,05,57,4.50
2012,10,02,05,58,4.50
2012,10,02,05,59,4.60
2012,10,02,06,00,4.70
2012,10,02,06,01,4.90
2012,10,02,06,02,4.90
2012,10,02,06,03,4.90
2012,10,02,06,04,4.90
2012,10,02,06,05,4.80
2012,10,02,06,06,4.60
2012,10,02,06,07,4.60
2012,10,02,06,08,4.60
2012,10,02,06,09,4.60
2012,10,02,06,10,4.60
2012,10,02,06,11,4.60
2012,10,02,06,12,4.70
2012,10,02,06,13,4.80
2012,10,02,06,14,4.80
2012,10,02,06,15,4.90
2012,10,02,06,16,4.80
2012,10,02,06,17,4.80
2012,10,02,06,18,4.70
2012,10,02,06,19,4.70
2012,10,02,06,20,4.70
2012,10,02,06,21,4.70
2012,10,02,06,22,4.70
2012,10,02,06,23,4.80
2012,10,02,06,24,4.80
2012,10,02,06,25,4.80
2012,10,02,06,26,4.80
2012,10,02,06,27,4.90
2012,10,02,06,28,4.90
2012,10,02,06,29,4.90
2012,10,02,06,30,4.90
2012,10,02,06,31,4.80
2012,10,02,06,32,4.70
2012,10,02,06,33,4.60
2012,10,02,06,34,4.50
2012,10,02,06,35,4.40
2012,10,02,06,36,4.40
2012,10,02,06,37,4.30
2012,10,02,06,38,4.30
2012,10,02,06,39,4.30
2012,10,02,06,40,4.30
2012,10,02,06,41,4.40
2012,10,02,06,42,4.40
2012,10,02,06,43,4.40
2012,10,02,06,44,4.50
2012,10,02,06,45,4.50
2012,10,02,06,46,4.50
2012,10,02,06,47,4.60
2012,10,02,06,48,4.60
2012,10,02,06,49,4.60
2012,10,02,06,50,4.60
2012,10,02,06,51,4.60
2012,10,02,06,52,4.60
2012,10,02,06,53,4.70
2012,10,02,06,54,4.70
2012,10,02,06,55,4.70
2012,10,02,06,56,4.70
2012,10,02,06,57,4.70
2012,10,02,06,58,4.70
2012,10,02,06,59,4.70
2012,10,02,07,00,4.70
2012,10,02,07,01,4.80
2012,10,02,07,02,4.80
2012,10,02,07,03,4.80
2012,10,02,07,04,4.80
2012,10,02,07,05,4.80
2012,10,02,07,06,4.80
2012,10,02,07,07,4.80
2012,10,02,07,08,4.80
2012,10,02,07,09,4.80
2012,10,02,07,10,4.80
2012,10,02,07,11,4.80
2012,10,02,07,12,4.80
2012,10,02,07,13,4.80
2012,10,02,07,14,4.70
2012,10,02,07,15,4.70
2012,10,02,07,16,4.70
2012,10,02,07,17,4.60
2012,10,02,07,18,4.60
2012,10,02,07,19,4.60
2012,10,02,07,20,4.60
2012,10,02,07,21,4.60
2012,10,02,07,22,4.60
2012,10,02,07,23,4.60
2012,10,02,07,24,4.60
2012,10,02,07,25,4.50
2012,10,02,07,26,4.50
2012,10,02,07,27,4.50
2012,10,02,07,28,4.50
2012,10,02,07,29,4.50
2012,10,02,07,30,4.50
2012,10,02,07,31,4.50
2012,10,02,07,32,4.50
2012,10,02,07,33,4.60
2012,10,02,07,34,4.60
2012,10,02,07,35,4.60
2012,10,02,07,36,4.60
2012,10,02,07,37,4.60
2012,10,02,07,38,4.60
2012,10,02,07,39,4.60
2012,10,02,07,40,4.60
2012,10,02,07,41,4.60
2012,10,02,07,42,4.60
2012,10,02,07,43,4.60
2012,10,02,07,44,4.70
2012,10,02,07,45,4.70
2012,10,02,07,46,4.70
2012,10,02,07,47,4.80
2012,10,02,07,48,4.80
2012,10,02,07,49,4.90
2012,10,02,07,50,4.90
2012,10,02,07,51,4.90
2012,10,02,07,52,4.90
2012,10,02,07,53,4.90
2012,10,02,07,54,4.80
2012,10,02,07,55,4.80
2012,10,02,07,56,4.70
2012,10,02,07,57,4.70
2012,10,02,07,58,4.70
2012,10,02,07,59,4.60
2012,10,02,08,00,4.70
2012,10,02,08,01,4.70
2012,10,02,08,02,4.70
2012,10,02,08,03,4.80
2012,10,02,08,04,4.80
2012,10,02,08,05,4.80
2012,10,02,08,06,4.80
2012,10,02,08,07,4.90
2012,10,02,08,08,4.90
2012,10,02,08,09,4.90
2012,10,02,08,10,4.90
2012,10,02,08,11,5.00
2012,10,02,08,12,5.10
2012,10,02,08,13,5.10
2012,10,02,08,14,5.10
2012,10,02,08,15,5.10
2012,10,02,08,16,5.20
2012,10,02,08,17,5.20
2012,10,02,08,18,5.30
2012,10,02,08,19,5.30
2012,10,02,08,20,5.50
2012,10,02,08,21,5.50
2012,10,02,08,22,5.60
2012,10,02,08,23,5.70
2012,10,02,08,24,5.70
2012,10,02,08,25,5.90
2012,10,02,08,26,6.00
2012,10,02,08,27,6.10
2012,10,02,08,28,6.20
2012,10,02,08,29,6.20
2012,10,02,08,30,6.30
2012,10,02,08,31,6.30
2012,10,02,08,32,6.30
2012,10,02,08,33,6.40
2012,10,02,08,34,6.40
2012,10,02,08,35,6.50
2012,10,02,08,36,6.60
2012,10,02,08,37,6.70
2012,10,02,08,38,6.80
2012,10,02,08,39,6.90
2012,10,02,08,40,7.10
2012,10,02,08,41,7.30
2012,10,02,08,42,7.40
2012,10,02,08,43,7.40
2012,10,02,08,44,7.50
2012,10,02,08,45,7.60
2012,10,02,08,46,7.60
2012,10,02,08,47,7.70
2012,10,02,08,48,7.70
2012,10,02,08,49,7.70
2012,10,02,08,50,7.80
2012,10,02,08,51,7.80
2012,10,02,08,52,7.80
2012,10,02,08,53,7.90
2012,10,02,08,54,7.90
2012,10,02,08,55,8.00
2012,10,02,08,56,8.00
2012,10,02,08,57,8.10
2012,10,02,08,58,8.20
2012,10,02,08,59,8.30
2012,10,02,09,00,8.30
2012,10,02,09,01,8.40
2012,10,02,09,02,8.50
2012,10,02,09,03,8.60
2012,10,02,09,04,8.70
2012,10,02,09,05,8.70
2012,10,02,09,06,8.90
2012,10,02,09,07,8.90
2012,10,02,09,08,9.00
2012,10,02,09,09,9.20
2012,10,02,09,10,9.20
2012,10,02,09,11,9.30
2012,10,02,09,12,9.40
2012,10,02,09,13,9.40
2012,10,02,09,14,9.50
2012,10,02,09,15,9.60
2012,10,02,09,16,9.70
2012,10,02,09,17,9.70
2012,10,02,09,18,9.80
2012,10,02,09,19,9.80
2012,10,02,09,20,9.90
2012,10,02,09,21,9.90
2012,10,02,09,22,9.90
2012,10,02,09,23,10.00
2012,10,02,09,24,10.10
2012,10,02,09,25,10.10
2012,10,02,09,26,10.20
2012,10,02,09,27,10.30
2012,10,02,09,28,10.40
2012,10,02,09,29,10.40
2012,10,02,09,30,10.40
2012,10,02,09,31,10.50
2012,10,02,09,32,10.60
2012,10,02,09,33,10.60
2012,10,02,09,34,10.70
2012,10,02,09,35,10.70
2012,10,02,09,36,10.80
2012,10,02,09,37,10.80
2012,10,02,09,38,10.90
2012,10,02,09,39,10.90
2012,10,02,09,40,10.90
2012,10,02,09,41,10.90
2012,10,02,09,42,10.90
2012,10,02,09,43,10.90
2012,10,02,09,44,11.00
2012,10,02,09,45,11.10
2012,10,02,09,46,11.10
2012,10,02,09,47,11.10
2012,10,02,09,48,11.10
2012,10,02,09,49,11.20
2012,10,02,09,50,11.20
2012,10,02,09,51,11.20
2012,10,02,09,52,11.10
2012,10,02,09,53,11.10
2012,10,02,09,54,11.10
2012,10,02,09,55,11.10
2012,10,02,09,56,11.10
2012,10,02,09,57,11.10
2012,10,02,09,58,11.10
2012,10,02,09,59,11.10
2012,10,02,10,00,11.10
2012,10,02,10,01,11.00
2012,10,02,10,02,11.10
2012,10,02,10,03,11.10
2012,10,02,10,04,11.10
2012,10,02,10,05,11.10
2012,10,02,10,06,11.10
2012,10,02,10,07,11.10
2012,10,02,10,08,11.20
2012,10,02,10,09,11.20
2012,10,02,10,10,11.20
2012,10,02,10,11,11.30
2012,10,02,10,12,11.30
2012,10,02,10,13,11.30
2012,10,02,10,14,11.40
2012,10,02,10,15,11.40
2012,10,02,10,16,11.40
2012,10,02,10,17,11.40
2012,10,02,10,18,11.40
2012,10,02,10,19,11.40
2012,10,02,10,20,11.40
2012,10,02,10,21,11.50
2012,10,02,10,22,11.60
2012,10,02,10,23,11.60
2012,10,02,10,24,11.60
2012,10,02,10,25,11.60
2012,10,02,10,26,11.60
2012,10,02,10,27,11.70
2012,10,02,10,28,11.70
2012,10,02,10,29,11.60
2012,10,02,10,30,11.60
2012,10,02,10,31,11.70
2012,10,02,10,32,11.70
2012,10,02,10,33,11.80
2012,10,02,10,34,11.80
2012,10,02,10,35,11.70
2012,10,02,10,36,11.70
2012,10,02,10,37,11.70
2012,10,02,10,38,11.70
2012,10,02,10,39,11.70
2012,10,02,10,40,11.70
2012,10,02,10,41,11.60
2012,10,02,10,42,11.60
2012,10,02,10,43,11.60
2012,10,02,10,44,11.60
2012,10,02,10,45,11.60
2012,10,02,10,46,11.60
2012,10,02,10,47,11.70
2012,10,02,10,48,11.70
2012,10,02,10,49,11.80
2012,10,02,10,50,11.80
2012,10,02,10,51,11.80
2012,10,02,10,52,11.80
2012,10,02,10,53,11.80
2012,10,02,10,54,11.90
2012,10,02,10,55,11.90
2012,10,02,10,56,12.00
2012,10,02,10,57,12.10
2012,10,02,10,58,12.10
2012,10,02,10,59,12.20
2012,10,02,11,00,12.20
2012,10,02,11,01,12.20
2012,10,02,11,02,12.30
2012,10,02,11,03,12.30
2012,10,02,11,04,12.30
2012,10,02,11,05,12.40
2012,10,02,11,06,12.40
2012,10,02,11,07,12.40
2012,10,02,11,08,12.40
2012,10,02,11,09,12.40
2012,10,02,11,10,12.40
2012,10,02,11,11,12.40
2012,10,02,11,12,12.50
2012,10,02,11,13,12.50
2012,10,02,11,14,12.50
2012,10,02,11,15,12.50
2012,10,02,11,16,12.60
2012,10,02,11,17,12.60
2012,10,02,11,18,12.70
2012,10,02,11,19,12.70
2012,10,02,11,20,12.80
2012,10,02,11,21,12.80
2012,10,02,11,22,12.90
2012,10,02,11,23,13.00
2012,10,02,11,24,13.00
2012,10,02,11,25,13.00
2012,10,02,11,26,13.00
2012,10,02,11,27,12.90
2012,10,02,11,28,12.90
2012,10,02,11,29,12.90
2012,10,02,11,30,12.90
2012,10,02,11,31,12.80
2012,10,02,11,32,12.80
2012,10,02,11,33,12.70
2012,10,02,11,34,12.70
2012,10,02,11,35,12.70
2012,10,02,11,36,12.70
2012,10,02,11,37,12.80
2012,10,02,11,38,12.80
2012,10,02,11,39,12.90
2012,10,02,11,40,12.90
2012,10,02,11,41,13.00
2012,10,02,11,42,13.00
2012,10,02,11,43,13.10
2012,10,02,11,44,13.10
2012,10,02,11,45,13.20
2012,10,02,11,46,13.10
2012,10,02,11,47,13.10
2012,10,02,11,48,13.10
2012,10,02,11,49,13.10
2012,10,02,11,50,13.10
2012,10,02,11,51,13.00
2012,10,02,11,52,13.00
2012,10,02,11,53,13.00
2012,10,02,11,54,12.90
2012,10,02,11,55,12.80
2012,10,02,11,56,12.80
2012,10,02,11,57,12.80
2012,10,02,11,58,12.80
2012,10,02,11,59,12.80
2012,10,02,12,00,12.80
2012,10,02,12,01,12.80
2012,10,02,12,02,12.90
2012,10,02,12,03,12.90
2012,10,02,12,04,12.90
2012,10,02,12,05,12.80
2012,10,02,12,06,12.80
2012,10,02,12,07,12.80
2012,10,02,12,08,12.80
2012,10,02,12,09,12.80
2012,10,02,12,10,12.80
2012,10,02,12,11,12.80
2012,10,02,12,12,12.80
2012,10,02,12,13,12.80
2012,10,02,12,14,12.90
2012,10,02,12,15,12.90
2012,10,02,12,16,13.00
2012,10,02,12,17,13.00
2012,10,02,12,18,13.10
2012,10,02,12,19,13.20
2012,10,02,12,20,13.30
2012,10,02,12,21,13.30
2012,10,02,12,22,13.30
2012,10,02,12,23,13.40
2012,10,02,12,24,13.40
2012,10,02,12,25,13.30
2012,10,02,12,26,13.30
2012,10,02,12,27,13.40
2012,10,02,12,28,13.40
2012,10,02,12,29,13.50
2012,10,02,12,30,13.50
2012,10,02,12,31,13.60
2012,10,02,12,32,13.60
2012,10,02,12,33,13.70
2012,10,02,12,34,13.70
2012,10,02,12,35,13.80
2012,10,02,12,36,13.80
2012,10,02,12,37,13.80
2012,10,02,12,38,13.70
2012,10,02,12,39,13.70
2012,10,02,12,40,13.70
2012,10,02,12,41,13.70
2012,10,02,12,42,13.70
2012,10,02,12,43,13.70
2012,10,02,12,44,13.70
2012,10,02,12,45,13.70
2012,10,02,12,46,13.70
2012,10,02,12,47,13.70
2012,10,02,12,48,13.80
2012,10,02,12,49,13.90
2012,10,02,12,50,13.90
2012,10,02,12,51,14.00
2012,10,02,12,52,14.20
2012,10,02,12,53,14.20
2012,10,02,12,54,14.30
2012,10,02,12,55,14.30
2012,10,02,12,56,14.30
2012,10,02,12,57,14.20
2012,10,02,12,58,14.20
2012,10,02,12,59,14.20
2012,10,02,13,00,14.20
2012,10,02,13,01,14.20
2012,10,02,13,02,14.10
2012,10,02,13,03,14.10
2012,10,02,13,04,14.10
2012,10,02,13,05,14.10
2012,10,02,13,06,14.10
2012,10,02,13,07,14.20
2012,10,02,13,08,14.20
2012,10,02,13,09,14.30
2012,10,02,13,10,14.30
2012,10,02,13,11,14.30
2012,10,02,13,12,14.30
2012,10,02,13,13,14.30
2012,10,02,13,14,14.30
2012,10,02,13,15,14.30
2012,10,02,13,16,14.30
2012,10,02,13,17,14.30
2012,10,02,13,18,14.30
2012,10,02,13,19,14.40
2012,10,02,13,20,14.50
2012,10,02,13,21,14.60
2012,10,02,13,22,14.70
2012,10,02,13,23,14.70
2012,10,02,13,24,14.70
2012,10,02,13,25,14.70
2012,10,02,13,26,14.70
2012,10,02,13,27,14.60
2012,10,02,13,28,14.60
2012,10,02,13,29,14.60
2012,10,02,13,30,14.60
2012,10,02,13,31,14.50
2012,10,02,13,32,14.50
2012,10,02,13,33,14.50
2012,10,02,13,34,14.50
2012,10,02,13,35,14.40
2012,10,02,13,36,14.40
2012,10,02,13,37,14.50
2012,10,02,13,38,14.50
2012,10,02,13,39,14.60
2012,10,02,13,40,14.70
2012,10,02,13,41,14.80
2012,10,02,13,42,14.80
2012,10,02,13,43,14.90
2012,10,02,13,44,15.00
2012,10,02,13,45,15.00
2012,10,02,13,46,15.10
2012,10,02,13,47,15.10
2012,10,02,13,48,15.10
2012,10,02,13,49,15.10
2012,10,02,13,50,15.10
2012,10,02,13,51,15.20
2012,10,02,13,52,15.30
2012,10,02,13,53,15.30
2012,10,02,13,54,15.20
2012,10,02,13,55,15.20
2012,10,02,13,56,15.10
2012,10,02,13,57,15.10
2012,10,02,13,58,15.10
2012,10,02,13,59,15.10
2012,10,02,14,00,15.10
2012,10,02,14,01,15.20
2012,10,02,14,02,15.20
2012,10,02,14,03,15.30
2012,10,02,14,04,15.30
2012,10,02,14,05,15.40
2012,10,02,14,06,15.40
2012,10,02,14,07,15.30
2012,10,02,14,08,15.30
2012,10,02,14,09,15.40
2012,10,02,14,10,15.40
2012,10,02,14,11,15.40
2012,10,02,14,12,15.40
2012,10,02,14,13,15.50
2012,10,02,14,14,15.50
2012,10,02,14,15,15.40
2012,10,02,14,16,15.40
2012,10,02,14,17,15.30
2012,10,02,14,18,15.30
2012,10,02,14,19,15.30
2012,10,02,14,20,15.30
2012,10,02,14,21,15.30
2012,10,02,14,22,15.40
2012,10,02,14,23,15.40
2012,10,02,14,24,15.40
2012,10,02,14,25,15.40
2012,10,02,14,26,15.40
2012,10,02,14,27,15.40
2012,10,02,14,28,15.40
2012,10,02,14,29,15.50
2012,10,02,14,30,15.50
2012,10,02,14,31,15.50
2012,10,02,14,32,15.50
2012,10,02,14,33,15.50
2012,10,02,14,34,15.50
2012,10,02,14,35,15.40
2012,10,02,14,36,15.40
2012,10,02,14,37,15.30
2012,10,02,14,38,15.30
2012,10,02,14,39,15.20
2012,10,02,14,40,15.10
2012,10,02,14,41,15.00
2012,10,02,14,42,14.90
2012,10,02,14,43,14.80
2012,10,02,14,44,14.80
2012,10,02,14,45,14.90
2012,10,02,14,46,15.00
2012,10,02,14,47,15.00
2012,10,02,14,48,15.00
2012,10,02,14,49,15.00
2012,10,02,14,50,15.10
2012,10,02,14,51,15.10
2012,10,02,14,52,15.20
2012,10,02,14,53,15.30
2012,10,02,14,54,15.30
2012,10,02,14,55,15.30
2012,10,02,14,56,15.30
2012,10,02,14,57,15.30
2012,10,02,14,58,15.30
2012,10,02,14,59,15.30
2012,10,02,15,00,15.30
2012,10,02,15,01,15.30
2012,10,02,15,02,15.30
2012,10,02,15,03,15.30
2012,10,02,15,04,15.30
2012,10,02,15,05,15.30
2012,10,02,15,06,15.30
2012,10,02,15,07,15.20
2012,10,02,15,08,15.10
2012,10,02,15,09,15.00
2012,10,02,15,10,14.90
2012,10,02,15,11,14.90
2012,10,02,15,12,14.80
2012,10,02,15,13,14.80
2012,10,02,15,14,14.80
2012,10,02,15,15,14.70
2012,10,02,15,16,14.70
2012,10,02,15,17,14.60
2012,10,02,15,18,14.50
2012,10,02,15,19,14.30
2012,10,02,15,20,14.20
2012,10,02,15,21,14.20
2012,10,02,15,22,14.10
2012,10,02,15,23,14.10
2012,10,02,15,24,14.00
2012,10,02,15,25,14.00
2012,10,02,15,26,13.90
2012,10,02,15,27,13.90
2012,10,02,15,28,13.80
2012,10,02,15,29,13.80
2012,10,02,15,30,13.80
2012,10,02,15,31,13.80
2012,10,02,15,32,13.70
2012,10,02,15,33,13.70
2012,10,02,15,34,13.70
2012,10,02,15,35,13.70
2012,10,02,15,36,13.80
2012,10,02,15,37,13.80
2012,10,02,15,38,13.90
2012,10,02,15,39,14.00
2012,10,02,15,40,14.10
2012,10,02,15,41,14.20
2012,10,02,15,42,14.20
2012,10,02,15,43,14.40
2012,10,02,15,44,14.50
2012,10,02,15,45,14.60
2012,10,02,15,46,14.70
2012,10,02,15,47,14.80
2012,10,02,15,48,14.90
2012,10,02,15,49,14.90
2012,10,02,15,50,15.00
2012,10,02,15,51,14.90
2012,10,02,15,52,14.90
2012,10,02,15,53,15.00
2012,10,02,15,54,15.00
2012,10,02,15,55,15.00
2012,10,02,15,56,15.00
2012,10,02,15,57,15.00
2012,10,02,15,58,15.00
2012,10,02,15,59,15.00
2012,10,02,16,00,14.90
2012,10,02,16,01,14.90
2012,10,02,16,02,14.90
2012,10,02,16,03,14.90
2012,10,02,16,04,14.90
2012,10,02,16,05,14.80
2012,10,02,16,06,14.80
2012,10,02,16,07,14.80
2012,10,02,16,08,14.80
2012,10,02,16,09,14.80
2012,10,02,16,10,14.80
2012,10,02,16,11,14.80
2012,10,02,16,12,14.80
2012,10,02,16,13,14.70
2012,10,02,16,14,14.70
2012,10,02,16,15,14.70
2012,10,02,16,16,14.70
2012,10,02,16,17,14.70
2012,10,02,16,18,14.70
2012,10,02,16,19,14.70
2012,10,02,16,20,14.70
2012,10,02,16,21,14.60
2012,10,02,16,22,14.60
2012,10,02,16,23,14.60
2012,10,02,16,24,14.60
2012,10,02,16,25,14.50
2012,10,02,16,26,14.50
2012,10,02,16,27,14.50
2012,10,02,16,28,14.50
2012,10,02,16,29,14.50
2012,10,02,16,30,14.40
2012,10,02,16,31,14.40
2012,10,02,16,32,14.30
2012,10,02,16,33,14.20
2012,10,02,16,34,14.10
2012,10,02,16,35,14.00
2012,10,02,16,36,14.00
2012,10,02,16,37,13.90
2012,10,02,16,38,13.90
2012,10,02,16,39,13.80
2012,10,02,16,40,13.80
2012,10,02,16,41,13.70
2012,10,02,16,42,13.70
2012,10,02,16,43,13.70
2012,10,02,16,44,13.60
2012,10,02,16,45,13.60
2012,10,02,16,46,13.50
2012,10,02,16,47,13.50
2012,10,02,16,48,13.50
2012,10,02,16,49,13.60
2012,10,02,16,50,13.60
2012,10,02,16,51,13.50
2012,10,02,16,52,13.50
2012,10,02,16,53,13.50
2012,10,02,16,54,13.60
2012,10,02,16,55,13.60
2012,10,02,16,56,13.60
2012,10,02,16,57,13.60
2012,10,02,16,58,13.60
2012,10,02,16,59,13.60
2012,10,02,17,00,13.60
2012,10,02,17,01,13.60
2012,10,02,17,02,13.70
2012,10,02,17,03,13.70
2012,10,02,17,04,13.70
2012,10,02,17,05,13.60
2012,10,02,17,06,13.60
2012,10,02,17,07,13.70
2012,10,02,17,08,13.70
2012,10,02,17,09,13.70
2012,10,02,17,10,13.70
2012,10,02,17,11,13.70
2012,10,02,17,12,13.70
2012,10,02,17,13,13.70
2012,10,02,17,14,13.70
2012,10,02,17,15,13.60
2012,10,02,17,16,13.60
2012,10,02,17,17,13.60
2012,10,02,17,18,13.60
2012,10,02,17,19,13.60
2012,10,02,17,20,13.60
2012,10,02,17,21,13.70
2012,10,02,17,22,13.70
2012,10,02,17,23,13.70
2012,10,02,17,24,13.70
2012,10,02,17,25,13.70
2012,10,02,17,26,13.70
2012,10,02,17,27,13.70
2012,10,02,17,28,13.70
2012,10,02,17,29,13.70
2012,10,02,17,30,13.70
2012,10,02,17,31,13.70
2012,10,02,17,32,13.70
2012,10,02,17,33,13.70
2012,10,02,17,34,13.70
2012,10,02,17,35,13.70
2012,10,02,17,36,13.70
2012,10,02,17,37,13.70
2012,10,02,17,38,13.70
2012,10,02,17,39,13.70
2012,10,02,17,40,13.70
2012,10,02,17,41,13.70
2012,10,02,17,42,13.70
2012,10,02,17,43,13.60